Location: Songkhla
(7.2000°N, 100.6000°E)
Time: 08:04:22
(UTC+07:00)

Delta 198 - Pass Details

Date: 16 April 2026
Orbit: 449 x 914 km, 24.8° (Epoch: 17 May)

Event Time Altitude Azimuth Distance (km) Brightness Sun altitude
Rises 19:18:04 0° 294° (WNW) 2,972 8.8 -13.5°
Reaches altitude 10° 19:20:36 10° 293° (WNW) 1,977 7.5 -14.1°
Maximum altitude 19:25:11 82° 205° (SSW) 563 3.3 -15.2°
Enters shadow 19:27:13 28° 121° (ESE) 1,001 4.1 -15.7°
